CAPE
123 68 51 78 150 172 108 72 72 149 243 355 336 252 416 582 464 463 534 429 253 392 847 1347 1620 1324 1020 1006 1376 1176 1255 1253 1417 1432 1280 1660 1749 1723 1347 1303 1402 1362 1511 1401 1084 1196 1102 1118 1264
55 95 12 89 135 117 110 61 72 201 270 319 325 383 472 602 610 588 536 545 453 828 1061 1260 1703 1281 1027 1059 1121 1362 1198 763 711 1171 1556 1628 1495 1558 1692 1462 1289 1405 1365 1368 1263 1514 1577 1697 1837
222 72 86 179 147 142 152 130 136 139 178 312 359 339 356 533 587 566 478 577 708 1165 1281 1325 1393 1229 918 798 770 953 815 616 457 1337 1425 1561 1819 1553 1163 1202 1337 1416 1370 1339 1001 1247 1321 1374 1358
369 126 141 338 237 121 78 54 111 199 269 303 261 319 303 349 498 520 567 612 679 943 1073 1425 1432 1176 713 564 624 703 666 459 1181 1475 1702 1721 1403 1202 999 1022 987 992 1148 1042 706 786 925 778 810
58 96 217 204 173 133 42 120 106 151 157 138 122 194 283 295 470 525 497 482 485 735 1189 1246 1302 1068 929 31 130 53 879 594 1494 1651 1535 1474 1496 1192 1081 1237 1551 1307 957 1076 1026 972 969 1224 1363
51 128 104 139 161 104 103 142 139 105 141 45 36 39 104 216 467 418 272 254 223 424 1091 1305 1285 1222 866 9 133 636 1156 1310 1391 1441 1625 1575 1509 1334 1210 1242 1272 1400 1391 1345 1237 1198 1282 1557 1747
13 94 63 134 158 165 129 126 120 53 14 4 0 9 66 147 279 333 294 264 218 178 460 916 1252 1136 742 811 541 1186 1116 1110 1310 1621 1774 1677 1339 1298 1428 1482 1510 1368 1290 1228 1218 1314 1391 1459 1582
28 202 83 150 279 318 260 130 102 6 0 0 1 16 34 76 110 142 127 35 35 45 272 704 910 1379 1211 686 1405 1199 1521 1505 1463 1450 1631 1628 1407 1314 1321 1113 1396 1695 1687 1789 1872 2118 2153 2143 2293
5 120 129 120 160 201 211 82 61 38 0 66 31 10 29 18 0 0 5 28 72 5 90 402 666 892 1050 1013 1333 1570 1936 1797 1678 1806 1520 774 464 459 634 1443 1679 2001 1949 1709 1831 2120 2217 2253 2214
4 32 78 218 103 108 293 135 75 3 35 54 0 0 26 13 0 0 7 32 56 114 131 175 329 312 158 332 615 717 696 910 904 1026 1013 612 736 1371 1062 1100 998 1186 1068 1460 1668 1543 1934 1475 1477
14 0 38 192 126 111 296 188 60 6 91 54 7 16 40 29 0 0 0 5 27 102 95 117 237 208 191 177 215 165 358 301 428 892 972 858 785 991 750 820 647 930 1120 1724 1656 1319 1053 1320 1452
332 54 39 120 47 132 274 279 60 51 102 43 1 0 30 25 0 0 0 0 20 22 29 14 137 359 342 232 74 105 325 319 726 782 983 1331 1052 1143 728 582 663 1095 1496 1687 1326 1176 1438 1075 1002
213 157 72 116 46 191 309 149 197 79 46 2 4 10 4 22 0 0 0 0 0 5 21 2 45 282 376 339 342 672 712 682 842 936 616 1304 787 588 366 436 815 962 1461 1501 1224 1243 1206 1013 709
206 147 62 34 69 218 89 134 242 118 63 29 23 23 5 8 0 0 0 0 1 8 5 0 18 79 230 234 339 977 521 167 434 585 322 889 952 747 428 777 766 670 1265 1593 1283 1338 1252 1062 857
213 186 193 185 123 198 78 216 203 103 73 62 91 54 20 0 0 0 6 22 8 13 12 4 5 32 91 132 165 367 526 838 829 506 795 468 206 550 459 534 535 600 996 1372 1569 1444 1061 591 824
354 310 248 281 254 191 151 143 171 61 73 63 92 96 85 68 59 10 11 78 47 47 24 2 0 29 73 174 292 330 697 796 687 622 680 653 253 244 478 348 475 213 840 1472 1528 1569 1503 1060 561
259 343 291 348 287 208 159 156 375 83 88 105 88 98 91 80 141 144 32 82 65 38 27 3 2 17 60 192 388 952 980 474 506 777 764 768 466 296 152 174 279 398 765 1279 1371 1503 880 670 319
165 85 168 228 353 248 164 134 189 334 81 92 151 123 164 150 179 220 115 82 58 30 34 14 16 36 125 243 779 877 671 720 1084 1012 1136 1086 716 100 245 205 256 426 253 1114 1306 1289 780 533 527
97 29 0 117 448 318 349 228 65 320 360 271 150 152 153 210 175 273 244 143 98 17 37 37 45 64 321 518 925 835 686 1283 1405 1162 1530 1471 862 422 395 117 227 277 303 1236 1518 1164 948 726 549
119 39 0 256 658 454 385 358 282 108 312 317 254 231 113 232 262 336 343 261 169 83 9 60 34 46 595 764 866 772 1053 1136 1235 1247 997 1357 929 895 702 690 339 150 984 1606 1735 912 641 568 538
0 0 0 0 748 596 565 513 579 280 183 221 253 286 232 277 320 361 386 332 251 171 86 8 35 53 220 836 683 896 1026 1493 1465 935 1002 779 1247 957 354 510 278 212 604 1673 2136 2151 1808 1747 1054
1 0 0 396 462 295 441 111 172 535 470 266 227 377 207 127 156 276 320 357 299 250 159 44 63 142 197 711 896 1108 1949 1152 1726 990 722 1190 1660 1512 862 375 160 366 1065 1748 2281 2606 2478 2251 1996
0 1 99 403 344 447 501 347 222 307 489 577 336 238 424 211 149 265 124 297 329 274 242 135 139 227 379 738 1170 1094 1251 1053 1034 1240 1879 1725 2038 1755 1015 687 779 1383 1290 1728 2280 2680 2730 2415 2050
204 394 377 394 497 224 97 245 13 191 470 376 387 325 277 390 204 230 275 264 411 387 328 381 551 755 923 977 1278 1477 1525 1322 1164 1443 1502 1696 1431 1630 1732 1250 1345 1537 1717 2214 2361 2616 2416 2605 2392
98 140 37 112 161 9 46 325 102 146 387 465 631 348 305 335 506 225 208 420 444 569 560 572 888 1137 1191 1117 1275 1456 1555 1537 1626 1592 1394 1621 1501 1778 1698 1922 1778 1671 1780 2224 2450 2729 2260 2525 2388
31 0 0 0 0 0 141 214 86 328 262 231 654 712 377 246 338 542 219 299 551 537 788 773 1002 1306 1228 1278 1429 1489 1640 1307 1318 1553 1395 1420 1539 1622 1831 1797 1937 2133 2177 2289 2207 3107 2093 2117 2837
0 0 0 0 0 0 0 40 231 275 356 465 430 372 459 375 324 299 499 149 421 392 894 898 1108 1414 1354 1302 1572 1613 1563 1444 1338 1497 1526 1687 1979 1720 1793 1761 1931 2207 2142 2248 2327 2437 2106 2206 2238
0 0 0 0 0 0 5 100 170 558 394 274 125 134 215 318 227 281 401 266 144 165 689 816 1098 1344 1391 1230 1386 1472 1585 1658 1585 1645 1496 1544 1941 1818 1765 1637 1770 2142 2097 1966 2227 2251 1845 1878 1412
0 0 0 0 0 0 0 9 300 428 69 51 18 45 50 88 376 253 339 431 259 151 270 584 871 1112 1218 1172 1309 1502 1627 1594 1636 1540 1527 1488 1666 1484 1458 1605 1604 1771 1716 1906 2256 2031 2126 1876 1991
0 0 2 1 13 6 10 2 36 169 92 62 62 166 715 747 732 681 291 353 481 422 516 545 895 1075 1112 1164 1415 1442 1506 1506 1528 1564 1596 1580 1656 1639 1575 1513 1551 1677 1575 1822 1944 1592 1644 1778 1181
CIN
-122 -184 -307 -268 -115 -47 -22 -23 -45 -41 -39 -67 -71 -61 -47 -64 -57 -32 -75 -71 -85 -26 -8 -0 -0 -0 -2 -8 -1 -0 -0 -2 -2 -0 -0 -0 -0 -0 -0 -0 -0 -0 -0 -0 -0 -0 -0 -1 -0
-156 -196 -344 -219 -56 -13 -18 -38 -35 -54 -93 -73 -75 -60 -42 -41 -55 -68 -48 -26 -17 -0 -4 -0 -1 -0 -1 -5 -7 -0 -0 -3 -7 -4 -4 -2 -3 -0 -0 -0 -1 -1 -1 -0 -1 -0 -0 -0 -1
-150 -257 -162 -152 -90 -16 -14 -41 -61 -98 -89 -44 -43 -50 -46 -28 -34 -34 -44 -12 -0 -0 -0 -0 -5 -1 -3 -9 -6 -3 -2 -7 -4 -2 -5 -3 -0 -0 -1 -0 -0 -0 -0 -0 -0 -0 -0 -0 -2
-147 -200 -168 -34 -41 -50 -48 -56 -65 -69 -69 -50 -43 -33 -27 -43 -21 -19 -10 -3 -1 -0 -0 -1 -1 -2 -3 -7 -1 -10 -3 -8 -3 -3 -0 -0 -2 -0 -0 -0 -0 -0 -0 -0 -0 -8 -0 -5 -7
-185 -193 -50 -56 -41 -48 -66 -56 -63 -56 -71 -63 -73 -54 -34 -44 -17 -14 -7 -5 -7 -0 -0 -0 -8 -3 -5 -38 -35 -71 -0 -2 -2 -1 -1 -0 -0 -0 -0 -0 -0 -0 -0 -0 -0 -2 -10 -2 -7
-38 -153 -53 -30 -30 -46 -46 -52 -52 -92 -79 -100 -98 -109 -71 -35 -5 -7 -19 -11 -8 -1 -1 -0 -10 -2 -3 -51 -33 -6 -2 -2 -1 -3 -0 -0 -0 -0 -0 -0 -0 -0 -0 -0 -1 -9 -4 -4 -7
-116 -37 -33 -40 -16 -30 -40 -50 -41 -54 -84 -27 -0 -23 -70 -39 -18 -9 -2 -2 -2 -7 -2 -14 -5 -2 -4 -0 -0 -0 -2 -3 -3 -1 -0 -0 -0 -0 -0 -0 -0 -0 -0 -0 -0 -3 -6 -6 -11
-120 -27 -21 -9 -5 -18 -62 -51 -20 -6 -0 -0 -4 -63 -71 -75 -47 -12 -14 -16 -12 -15 -0 -12 -18 -5 -0 -3 -1 -0 -3 -6 -1 -0 -0 -0 -0 -1 -4 -9 -0 -0 -0 -0 -0 -0 -5 -13 -16
-105 -36 -23 -44 -20 -25 -73 -41 -66 -99 -0 -54 -63 -55 -107 -113 -0 -0 -0 -6 -5 -0 -2 -5 -17 -9 -3 -1 -4 -1 -0 -0 -2 -1 -1 -13 -16 -20 -16 -8 -7 -2 -3 -17 -17 -27 -37 -45 -52
-9 -49 -38 -35 -59 -37 -37 -46 -48 -81 -61 -76 -0 -0 -145 -138 -0 -0 -37 -49 -8 -9 -1 -1 -5 -8 -20 -9 -19 -32 -41 -15 -14 -9 -10 -19 -23 -11 -17 -34 -62 -50 -75 -62 -65 -81 -97 -117 -63
-9 -0 -30 -5 -45 -63 -32 -33 -43 -57 -22 -41 -77 -133 -142 -137 -0 -0 -0 -12 -4 -2 -3 -6 -8 -25 -22 -69 -22 -68 -63 -63 -48 -26 -21 -38 -39 -36 -38 -41 -47 -57 -102 -37 -64 -97 -74 -119 -104
-21 -55 -38 -22 -6 -58 -9 -49 -37 -35 -31 -50 -18 -0 -147 -151 -0 -0 -0 -0 -0 -0 -0 -14 -16 -16 -28 -39 -59 -98 -60 -77 -21 -35 -43 -30 -27 -47 -73 -64 -91 -91 -73 -82 -91 -109 -116 -137 -178
-47 -33 -25 -30 -52 -39 -18 -31 -25 -48 -78 -16 -48 -125 -43 -131 -0 -0 -0 -0 -0 -25 -5 -15 -32 -45 -35 -36 -61 -33 -35 -32 -28 -32 -62 -38 -54 -82 -107 -136 -104 -106 -103 -74 -90 -122 -122 -120 -155
-59 -43 -46 -48 -44 -28 -49 -20 -40 -49 -44 -80 -106 -110 -47 -110 -0 -0 -0 -0 -50 -39 -30 -0 -75 -89 -67 -42 -63 -30 -80 -109 -78 -52 -95 -64 -54 -81 -101 -110 -108 -127 -90 -73 -109 -119 -120 -118 -131
-59 -35 -18 -19 -38 -25 -95 -30 -23 -76 -17 -58 -76 -93 -115 -0 -0 -0 -22 -24 -46 -56 -56 -24 -58 -96 -91 -87 -132 -84 -71 -44 -39 -64 -72 -100 -152 -117 -140 -120 -131 -116 -120 -123 -103 -121 -135 -182 -126
-34 -28 -7 -29 -20 -37 -49 -18 -77 -131 -37 -51 -59 -79 -82 -86 -76 -45 -42 -28 -38 -38 -98 -140 -0 -73 -83 -77 -84 -91 -72 -45 -49 -66 -77 -91 -138 -168 -135 -131 -131 -224 -134 -92 -76 -89 -83 -109 -141
-63 -13 -23 -32 -51 -42 -46 -39 -45 -125 -78 -55 -44 -46 -57 -61 -77 -51 -66 -48 -49 -83 -122 -165 -100 -95 -116 -101 -109 -48 -58 -77 -61 -63 -56 -72 -96 -143 -157 -145 -152 -174 -120 -81 -68 -78 -130 -113 -169
-22 -29 -43 -23 -53 -69 -55 -55 -75 -49 -114 -103 -46 -56 -40 -37 -47 -53 -52 -71 -67 -101 -143 -141 -105 -86 -63 -50 -41 -44 -64 -55 -55 -46 -40 -54 -76 -156 -140 -156 -140 -140 -157 -74 -68 -89 -135 -136 -116
-48 -52 -0 -49 -49 -42 -30 -25 -67 -46 -50 -37 -91 -73 -70 -30 -16 -61 -52 -64 -85 -123 -150 -158 -141 -111 -54 -35 -29 -31 -29 -26 -40 -40 -44 -45 -74 -95 -101 -142 -146 -149 -153 -73 -65 -85 -104 -100 -38
-44 -47 -0 -63 -50 -39 -39 -42 -65 -120 -80 -72 -77 -69 -122 -31 -34 -36 -61 -69 -84 -91 -108 -133 -156 -127 -40 -29 -35 -37 -32 -29 -31 -36 -50 -42 -59 -68 -75 -89 -132 -210 -83 -58 -51 -100 -101 -61 -128
-0 -0 -0 -0 -48 -46 -36 -50 -70 -135 -152 -112 -94 -62 -61 -71 -32 -25 -41 -68 -75 -100 -129 -78 -156 -127 -71 -28 -38 -45 -47 -43 -30 -37 -32 -44 -48 -60 -125 -119 -148 -73 -118 -50 -30 -37 -48 -22 -80
-0 -0 -0 -69 -32 -6 -57 -6 -67 -93 -127 -149 -123 -86 -68 -105 -59 -30 -27 -54 -83 -93 -101 -158 -140 -103 -84 -34 -16 -20 -8 -9 -12 -23 -34 -24 -30 -40 -86 -131 -164 -141 -77 -45 -19 -10 -17 -25 -15
-0 -7 -72 -63 -32 -26 -38 -16 -13 -144 -93 -97 -138 -123 -70 -49 -54 -75 -130 -47 -60 -72 -89 -111 -123 -93 -70 -49 -23 -12 -14 -18 -23 -25 -17 -25 -21 -31 -71 -101 -90 -60 -54 -46 -28 -8 -9 -15 -12
-118 -84 -92 -96 -51 -13 -51 -16 -6 -33 -58 -105 -128 -148 -137 -83 -63 -76 -93 -81 -64 -64 -76 -74 -101 -80 -63 -49 -31 -23 -15 -18 -16 -20 -14 -9 -15 -23 -38 -57 -55 -52 -46 -22 -14 -13 -14 -8 -13
-80 -53 -2 -1 -27 -4 -119 -34 -18 -69 -127 -132 -115 -180 -166 -127 -53 -76 -119 -91 -102 -70 -74 -73 -81 -63 -67 -53 -33 -32 -24 -26 -21 -20 -10 -17 -16 -16 -22 -32 -43 -32 -39 -20 -13 -11 -10 -7 -7
-40 -0 -0 -0 -0 -0 -136 -8 -25 -134 -202 -213 -171 -134 -173 -157 -108 -62 -69 -77 -75 -127 -94 -83 -81 -66 -62 -53 -42 -33 -21 -19 -17 -20 -26 -16 -15 -14 -31 -27 -30 -26 -21 -16 -17 -7 -3 -12 -7
-0 -0 -0 -0 -0 -0 -0 -89 -73 -135 -146 -158 -163 -177 -134 -127 -118 -124 -81 -103 -90 -180 -102 -96 -82 -80 -74 -55 -40 -31 -25 -33 -23 -29 -37 -24 -34 -26 -41 -40 -31 -21 -20 -20 -17 -10 -4 -15 -11
-0 -0 -0 -0 -0 -0 -9 -34 -2 -64 -82 -145 -176 -181 -177 -187 -197 -174 -128 -134 -141 -200 -96 -111 -91 -82 -83 -72 -52 -33 -22 -22 -20 -20 -28 -28 -27 -36 -41 -43 -40 -31 -26 -26 -17 -6 -3 -9 -6
-0 -0 -0 -0 -0 -0 -0 -2 -94 -65 -130 -165 -199 -237 -260 -233 -170 -198 -174 -148 -96 -186 -146 -133 -113 -91 -74 -78 -61 -40 -24 -15 -19 -19 -20 -30 -26 -41 -40 -43 -48 -37 -29 -17 -8 -3 -10 -14 -6
-0 -0 -27 -4 -29 -67 -43 -1 -215 -193 -237 -256 -236 -216 -131 -153 -137 -129 -177 -141 -117 -128 -131 -132 -122 -103 -91 -86 -74 -65 -31 -22 -15 -13 -17 -22 -24 -25 -29 -37 -41 -28 -24 -23 -11 -2 -6 -3 -3
Wind_Speed
9 nan nan nan 4 2 6 nan nan 7 5 4 2 4 3 7 9 9 9 11 11 13 14 12 13 15 15 13 12 16 19 14 11 13 11 9 5 6 7 8 7 10 12 10 8 7 7 5 7
nan nan nan nan 5 4 7 nan nan 3 3 8 8 2 5 5 7 6 5 7 11 15 18 15 14 12 13 16 10 17 23 15 10 9 10 9 5 6 7 8 10 13 12 9 7 8 7 7 7
10 nan nan 4 4 6 6 7 13 12 4 4 3 4 4 7 8 7 7 7 10 13 17 16 11 12 15 19 17 17 21 16 12 11 9 8 7 6 9 10 11 14 11 9 7 7 8 7 8
10 8 7 2 9 3 nan nan 17 12 3 3 4 6 5 10 6 8 8 7 7 13 12 11 12 14 14 17 21 25 21 18 12 10 13 13 11 8 11 9 11 12 9 8 8 9 8 8 10
nan nan 10 7 9 1 nan 14 12 8 2 3 3 2 4 8 7 8 7 8 9 6 14 13 13 17 18 nan 18 nan 15 7 12 10 11 11 9 9 9 9 11 12 11 10 9 10 9 10 14
nan 13 12 9 10 5 11 9 10 6 5 nan nan nan 4 4 4 6 7 9 8 7 12 18 17 19 20 nan 20 12 14 9 11 12 12 7 7 8 7 8 8 9 10 8 9 10 12 14 16
nan nan nan 11 6 8 6 7 7 nan nan nan nan nan nan 2 5 3 6 8 7 6 12 18 21 18 20 16 12 14 12 12 13 16 9 6 7 5 7 5 5 6 7 8 10 10 12 14 19
nan 7 nan 7 6 6 7 1 9 nan nan nan nan nan nan nan 0 3 6 nan nan nan 10 17 19 17 18 17 14 10 14 11 13 13 8 7 6 4 4 4 4 5 6 6 9 11 17 21 25
nan 7 11 13 17 9 7 nan nan nan nan nan nan nan nan nan nan nan nan nan nan nan nan 16 17 18 18 20 19 16 17 14 10 9 8 6 4 2 1 1 3 4 4 9 13 17 23 27 32
nan nan nan 11 17 10 10 7 nan nan nan nan nan nan nan nan nan nan nan nan nan 6 9 15 17 17 18 18 21 19 18 13 11 10 10 7 5 5 6 4 2 2 7 10 16 19 27 34 30
nan nan nan 7 17 19 10 3 nan nan nan nan nan nan nan nan nan nan nan nan nan 6 nan 15 16 17 13 18 17 18 16 12 11 13 10 7 6 6 5 5 7 8 5 9 16 19 20 27 27
2 nan nan 6 nan 23 12 11 nan nan 7 nan nan nan nan nan nan nan nan nan nan nan nan nan 17 18 16 16 nan 19 14 12 11 14 12 7 6 5 5 7 6 8 3 10 13 14 22 29 29
1 6 nan 6 nan 15 11 9 8 nan nan nan nan nan nan nan nan nan nan nan nan nan nan nan nan 16 17 17 22 18 17 11 14 14 13 9 5 5 7 6 5 7 4 10 11 15 21 23 16
1 6 nan nan nan 10 nan 10 7 5 nan nan nan nan nan nan nan nan nan nan nan nan nan nan nan nan 18 16 20 19 17 14 17 15 13 9 5 5 6 4 5 7 6 7 9 13 17 20 17
8 6 3 2 6 6 nan 12 1 5 nan nan nan nan nan nan nan nan nan nan nan nan nan nan nan nan nan 17 17 15 14 14 18 13 10 7 8 4 4 4 5 6 6 8 8 13 13 16 16
5 4 2 5 7 5 9 5 6 nan nan nan nan nan nan nan nan nan nan nan nan nan nan nan nan nan nan 12 14 16 18 21 15 13 11 5 7 5 4 4 6 6 6 4 5 12 13 16 13
11 7 5 5 9 8 11 9 4 nan nan 5 nan nan nan nan 5 7 nan nan nan nan nan nan nan nan nan 16 19 18 18 16 14 11 9 4 3 7 6 3 5 4 5 3 2 8 9 12 11
10 nan 5 9 4 8 8 13 3 1 nan nan 5 9 7 8 7 7 8 nan nan nan nan nan nan nan 13 17 18 19 15 12 9 11 7 2 4 4 6 6 6 2 5 2 2 6 6 7 6
nan nan nan 16 7 6 11 12 nan 6 5 8 7 5 15 9 5 5 7 10 nan nan nan nan nan nan 12 11 16 17 13 12 8 9 6 1 4 1 4 6 4 4 2 5 5 6 6 4 4
13 nan nan 12 8 7 4 12 13 3 6 8 12 2 6 9 4 5 6 11 12 nan nan nan nan nan 12 18 15 17 14 10 10 9 5 4 4 2 6 5 3 4 6 5 3 6 4 4 4
nan nan nan nan 14 8 7 4 5 4 2 3 11 6 2 8 4 3 5 9 10 11 nan nan nan nan 11 16 13 12 13 11 9 6 6 5 4 4 4 2 5 5 4 5 3 4 5 4 3
nan nan nan 20 12 11 10 11 8 5 3 8 5 7 3 6 2 3 5 4 8 10 6 nan nan 6 5 11 11 10 10 10 10 7 6 7 6 5 4 5 3 1 4 7 5 3 7 6 1
nan nan nan 19 18 13 14 10 16 12 5 6 9 10 11 7 7 5 4 5 8 6 5 4 3 5 5 4 4 7 9 10 9 7 8 8 8 5 6 6 6 7 3 5 6 7 7 4 1
22 25 22 19 14 7 nan 14 nan 15 15 17 9 10 17 8 4 5 5 1 5 6 7 5 4 1 1 3 4 4 8 5 9 7 6 5 7 4 2 3 7 8 6 4 4 6 3 3 2
nan 10 nan 13 12 nan nan 15 12 15 13 13 14 13 8 15 8 11 13 12 6 2 4 6 4 5 3 2 1 3 6 5 4 6 5 6 4 4 3 2 4 5 6 5 4 3 1 2 4
nan nan nan nan nan nan 23 14 nan 21 20 16 19 19 20 14 14 14 18 16 5 9 7 7 6 5 5 3 2 3 4 8 7 8 7 6 4 5 5 2 2 3 4 5 4 3 4 3 0
nan nan nan nan nan nan nan nan 10 15 12 13 15 19 18 14 17 15 21 15 19 15 9 7 7 6 9 7 8 7 8 8 8 5 6 7 6 6 5 1 1 3 4 4 4 5 5 5 4
nan nan nan nan nan nan nan 13 13 14 13 10 11 12 15 14 12 13 13 10 13 11 11 12 10 6 8 11 9 8 7 7 8 9 9 5 7 7 7 3 2 4 5 5 1 4 3 5 7
nan nan nan nan nan nan nan nan 14 11 nan nan nan nan nan nan 12 8 10 12 8 11 13 14 12 11 8 12 12 9 8 8 9 10 10 8 8 8 7 9 9 9 8 3 6 6 8 6 8
nan nan nan nan nan nan nan nan nan 16 nan nan nan 16 16 13 13 6 4 9 9 9 14 13 13 14 13 14 16 13 11 11 10 10 11 12 10 9 8 10 10 10 8 6 7 8 10 8 7
Wind_Direction
13 nan nan nan 34 351 353 nan nan 354 10 100 106 125 152 178 163 186 191 197 221 223 217 212 211 233 229 231 250 239 222 216 245 273 283 284 300 335 309 298 313 300 282 297 314 304 289 299 305
nan nan nan nan 266 262 328 nan nan 347 327 310 288 258 178 176 169 214 209 233 235 217 213 210 204 225 223 223 234 231 221 215 217 251 264 272 304 302 294 276 274 272 277 288 282 284 311 319 312
358 nan nan 272 239 267 294 350 330 324 336 47 326 214 178 170 182 199 209 266 244 229 210 209 199 219 221 232 249 224 209 207 222 258 259 258 273 278 260 258 265 271 289 285 293 313 321 312 307
2 355 358 295 261 214 nan nan 329 320 286 179 303 241 214 179 184 194 248 257 259 238 225 210 204 229 237 229 241 210 197 201 214 234 252 253 254 258 250 264 270 287 299 309 331 319 314 321 318
nan nan 313 281 251 163 nan 340 339 303 315 319 102 254 206 191 201 255 263 267 266 230 214 203 220 225 238 nan 222 nan 182 182 234 242 246 251 252 256 264 266 277 304 323 317 317 317 329 333 341
nan 339 307 225 254 272 320 338 342 333 318 nan nan nan 173 216 228 228 249 254 256 259 211 198 215 226 235 nan 212 178 191 209 238 240 245 230 250 253 274 277 294 313 303 323 329 331 338 341 343
nan nan nan 212 300 260 339 320 330 nan nan nan nan nan nan 230 199 211 259 252 235 237 210 196 196 225 231 243 279 191 203 221 231 246 244 225 243 268 269 280 302 323 318 350 350 343 341 332 324
nan 346 nan 216 257 201 106 24 317 nan nan nan nan nan nan nan 98 260 254 nan nan nan 212 201 198 211 224 223 240 195 209 226 247 253 226 218 211 236 262 16 342 3 2 1 357 342 324 318 316
nan 353 340 233 222 180 134 nan nan nan nan nan nan nan nan nan nan nan nan nan nan nan nan 208 201 206 213 217 210 215 209 222 237 226 211 190 155 226 47 76 80 61 2 3 349 343 338 330 320
nan nan nan 185 223 147 134 80 nan nan nan nan nan nan nan nan nan nan nan nan nan 265 230 215 212 219 211 210 208 199 199 201 188 185 202 165 167 149 129 102 90 64 34 10 7 359 347 347 353
nan nan nan 170 210 204 171 173 nan nan nan nan nan nan nan nan nan nan nan nan nan 272 nan 208 211 216 205 189 199 194 195 196 210 201 195 163 150 136 114 98 79 73 31 24 18 6 352 344 355
15 nan nan 280 nan 189 194 169 nan nan 100 nan nan nan nan nan nan nan nan nan nan nan nan nan 219 221 204 204 nan 193 187 175 178 188 184 183 160 134 120 95 104 97 58 22 27 4 350 26 37
12 331 nan 322 nan 170 152 170 174 nan nan nan nan nan nan nan nan nan nan nan nan nan nan nan nan 196 200 201 179 185 188 173 178 182 183 195 168 143 103 89 102 106 89 42 22 12 17 34 53
360 324 nan nan nan 192 nan 151 126 354 nan nan nan nan nan nan nan nan nan nan nan nan nan nan nan nan 180 183 177 186 188 201 178 179 187 189 156 129 111 120 120 109 98 64 30 25 24 33 52
296 274 293 94 98 90 nan 104 350 7 nan nan nan nan nan nan nan nan nan nan nan nan nan nan nan nan nan 180 180 185 182 179 175 172 163 177 171 141 142 131 147 137 118 74 35 35 31 38 52
219 189 176 159 94 140 107 138 202 nan nan nan nan nan nan nan nan nan nan nan nan nan nan nan nan nan nan 179 185 190 180 170 167 164 170 175 165 168 173 153 145 160 118 67 24 42 35 38 49
182 207 186 180 114 132 121 137 88 nan nan 335 nan nan nan nan 57 51 nan nan nan nan nan nan nan nan nan 145 148 154 167 166 169 164 165 189 179 201 186 191 182 147 121 94 39 50 48 57 45
197 nan 192 150 128 120 126 129 85 82 nan nan 47 38 41 81 95 38 62 nan nan nan nan nan nan nan 134 151 159 162 163 160 170 152 160 138 118 111 170 178 186 172 111 106 155 73 53 60 41
nan nan nan 158 152 98 93 108 nan 18 80 22 14 69 44 81 104 87 53 74 nan nan nan nan nan nan 166 152 164 166 161 174 166 176 184 273 162 104 167 169 140 229 261 162 126 78 69 74 47
173 nan nan 202 273 3 147 101 92 79 66 52 11 336 65 76 72 95 71 81 78 nan nan nan nan nan 159 158 163 171 183 177 172 153 184 181 193 179 124 93 81 223 186 144 129 94 109 119 69
nan nan nan nan 270 289 254 163 145 179 135 40 25 69 82 17 13 107 95 71 85 77 nan nan nan nan 136 161 166 176 181 174 172 156 162 196 208 209 163 98 62 139 197 192 152 109 133 107 24
nan nan nan 268 259 246 268 239 230 233 185 60 38 353 308 34 64 102 93 108 88 100 116 nan nan 137 116 154 164 175 184 165 179 184 213 202 213 205 155 231 228 225 140 144 160 145 151 121 152
nan nan nan 275 261 262 269 254 258 248 261 35 34 2 5 354 351 342 111 111 109 144 141 138 132 127 136 137 138 170 175 174 178 185 183 200 218 205 188 208 210 228 148 155 140 160 166 134 152
257 254 252 254 252 244 nan 231 nan 265 253 264 299 22 0 354 344 345 330 309 133 169 172 200 192 172 114 156 147 160 149 150 156 179 185 204 234 239 219 187 193 205 166 161 163 168 170 163 284
nan 286 nan 279 270 nan nan 252 215 253 272 267 267 284 349 348 319 312 321 333 334 300 203 197 219 188 128 67 148 117 110 135 160 189 213 218 225 248 246 220 187 170 143 148 164 161 174 233 335
nan nan nan nan nan nan 247 255 nan 252 261 259 265 270 281 309 326 327 322 313 308 292 256 223 207 229 231 197 209 183 159 200 202 201 227 222 211 256 259 238 188 145 140 165 174 220 247 263 270
nan nan nan nan nan nan nan nan 244 270 283 272 257 268 264 285 306 323 328 322 316 263 293 288 242 208 249 236 209 205 209 201 210 232 238 221 256 249 251 215 181 169 219 223 209 219 240 251 252
nan nan nan nan nan nan nan 271 272 282 295 286 269 272 258 260 285 309 324 307 278 251 245 295 281 242 252 248 226 197 210 212 210 235 243 222 251 247 245 209 215 229 230 238 265 220 238 256 253
nan nan nan nan nan nan nan nan 288 286 nan nan nan nan nan nan 258 308 308 295 308 263 255 256 271 264 261 255 237 209 214 212 220 237 257 246 246 235 235 237 233 229 229 212 243 245 248 239 253
nan nan nan nan nan nan nan nan nan 279 nan nan nan 251 242 229 220 255 280 280 284 289 257 243 259 252 249 253 252 240 217 218 212 222 233 242 236 243 243 236 225 234 248 234 237 242 246 243 237